When you browse on this site, cookies collect data to enhance your experience and personalize the content and advertising you see.
Visit our Privacy Policy to learn more. By continuing to use the site, you agree to this use of cookies and data.
  • In Portugal
  • List of Countries
  • For 7 days
  • Water Temperature
  • Satellite Maps
  • Weather Map
  • Weather Widgets
  • user-avatar
    Login

    Hourly Weather Speshnevo

    Today, 26 April, Friday

    Time Temperature Precipitation Wind Pressure Humidity
    00:00 +17°C° 0 mm 2 mps 742 mmHg 51%
    01:00 +17°C° 0 mm 2 mps 742 mmHg 52%
    02:00 +16°C° 0 mm 2 mps 742 mmHg 53%
    03:00 +16°C° 0 mm 2 mps 742 mmHg 55%
    04:00 +16°C° 0 mm 2 mps 742 mmHg 57%
    05:00 +15°C° 0 mm 2 mps 742 mmHg 58%
    06:00 +16°C° 0 mm 2 mps 742 mmHg 58%
    07:00 +18°C° 0 mm 1 mps 742 mmHg 57%
    08:00 +18°C° 0 mm 1 mps 742 mmHg 56%
    09:00 +19°C° 0 mm 1 mps 742 mmHg 52%
    10:00 +21°C° 0 mm 1 mps 742 mmHg 48%
    11:00 +22°C° 0 mm 1 mps 742 mmHg 44%
    12:00 +22°C° 0 mm 1 mps 742 mmHg 41%
    13:00 +22°C° 0 mm 1 mps 742 mmHg 37%
    14:00 +23°C° 0 mm 1 mps 742 mmHg 33%
    15:00 +22°C° 0 mm 1 mps 741 mmHg 37%
    16:00 +22°C° 0 mm 1 mps 741 mmHg 40%
    17:00 +21°C° 0 mm 1 mps 741 mmHg 44%
    18:00 +20°C° 0 mm 1 mps 741 mmHg 46%
    19:00 +19°C° 0 mm 1 mps 741 mmHg 48%
    20:00 +19°C° 0 mm 1 mps 741 mmHg 50%
    21:00 +18°C° 0 mm 1 mps 741 mmHg 52%
    22:00 +16°C° 0 mm 1 mps 740 mmHg 53%
    23:00 +15°C° 0 mm 1 mps 740 mmHg 55%

    Tomorrow, 27 April, Saturday

    Time Temperature Precipitation Wind Pressure Humidity
    00:00 +15°C° 0 mm 1 mps 740 mmHg 57%
    01:00 +13°C° 0 mm 0 mps 740 mmHg 58%
    02:00 +13°C° 0 mm 0 mps 740 mmHg 60%
    03:00 +13°C° 0 mm 0 mps 739 mmHg 60%
    04:00 +13°C° 0 mm 0 mps 739 mmHg 61%
    05:00 +13°C° 0 mm 1 mps 739 mmHg 62%
    06:00 +15°C° 0 mm 1 mps 739 mmHg 57%
    07:00 +18°C° 0 mm 1 mps 739 mmHg 52%
    08:00 +19°C° 0 mm 2 mps 739 mmHg 47%
    09:00 +20°C° 0 mm 2 mps 738 mmHg 42%
    10:00 +21°C° 0 mm 3 mps 738 mmHg 38%
    11:00 +22°C° 0 mm 3 mps 738 mmHg 34%
    12:00 +22°C° 0 mm 4 mps 737 mmHg 36%
    13:00 +22°C° 0 mm 4 mps 737 mmHg 38%
    14:00 +21°C° 0 mm 4 mps 737 mmHg 40%
    15:00 +21°C° 0 mm 4 mps 736 mmHg 42%
    16:00 +21°C° 0 mm 3 mps 736 mmHg 45%
    17:00 +20°C° 0 mm 3 mps 735 mmHg 47%
    18:00 +19°C° 0 mm 3 mps 735 mmHg 51%
    19:00 +17°C° 0 mm 3 mps 735 mmHg 55%
    20:00 +14°C° 0 mm 3 mps 735 mmHg 59%
    21:00 +14°C° 0 mm 3 mps 734 mmHg 60%
    22:00 +13°C° 0 mm 3 mps 734 mmHg 61%
    23:00 +12°C° 0 mm 3 mps 734 mmHg 62%

    Day after tomorrow, 28 April, Sunday

    Time Temperature Precipitation Wind Pressure Humidity
    00:00 +12°C° 0 mm 3 mps 733 mmHg 65%
    01:00 +11°C° 0 mm 3 mps 733 mmHg 69%
    02:00 +11°C° 0 mm 3 mps 733 mmHg 73%
    03:00 +11°C° 0 mm 3 mps 733 mmHg 75%
    04:00 +12°C° 0 mm 2 mps 732 mmHg 77%
    05:00 +12°C° 0 mm 2 mps 732 mmHg 79%
    06:00 +13°C° 0 mm 2 mps 732 mmHg 73%
    07:00 +15°C° 0 mm 2 mps 733 mmHg 68%
    08:00 +16°C° 0 mm 2 mps 733 mmHg 63%
    09:00 +15°C° 0.1 mm 4 mps 733 mmHg 67%
    10:00 +14°C° 0.1 mm 5 mps 733 mmHg 70%
    11:00 +14°C° 0.1 mm 7 mps 734 mmHg 74%
    12:00 +12°C° 0 mm 7 mps 734 mmHg 74%
    13:00 +10°C° 0 mm 7 mps 734 mmHg 73%
    14:00 +9°C° 0 mm 8 mps 734 mmHg 72%
    15:00 +9°C° 0 mm 7 mps 735 mmHg 69%
    16:00 +10°C° 0 mm 7 mps 735 mmHg 65%
    17:00 +10°C° 0 mm 6 mps 736 mmHg 61%
    18:00 +9°C° 0 mm 6 mps 737 mmHg 60%
    19:00 +8°C° 0 mm 6 mps 737 mmHg 59%
    20:00 +7°C° 0 mm 6 mps 738 mmHg 57%
    21:00 +6°C° 0 mm 5 mps 739 mmHg 60%
    22:00 +5°C° 0 mm 5 mps 739 mmHg 62%
    23:00 +3°C° 0 mm 5 mps 739 mmHg 65%

    29 April, Monday

    Time Temperature Precipitation Wind Pressure Humidity
    00:00 +2°C° 0 mm 5 mps 740 mmHg 65%
    01:00 +1°C° 0 mm 5 mps 740 mmHg 65%
    02:00 +1°C° 0 mm 4 mps 740 mmHg 65%
    03:00 0°C° 0 mm 4 mps 741 mmHg 66%
    04:00 0°C° 0 mm 4 mps 741 mmHg 67%
    05:00 0°C° 0 mm 4 mps 741 mmHg 69%
    06:00 +1°C° 0 mm 5 mps 741 mmHg 64%
    07:00 +3°C° 0 mm 5 mps 742 mmHg 59%
    08:00 +4°C° 0 mm 6 mps 742 mmHg 55%
    09:00 +5°C° 0 mm 6 mps 742 mmHg 53%
    10:00 +7°C° 0 mm 5 mps 742 mmHg 50%
    11:00 +8°C° 0 mm 5 mps 742 mmHg 48%
    12:00 +8°C° 0 mm 5 mps 742 mmHg 47%
    13:00 +9°C° 0 mm 5 mps 742 mmHg 46%
    14:00 +9°C° 0 mm 5 mps 741 mmHg 44%
    15:00 +9°C° 0 mm 5 mps 741 mmHg 45%
    16:00 +8°C° 0 mm 4 mps 741 mmHg 46%
    17:00 +8°C° 0 mm 4 mps 741 mmHg 46%
    18:00 +7°C° 0 mm 4 mps 741 mmHg 49%
    19:00 +7°C° 0 mm 3 mps 741 mmHg 53%
    20:00 +4°C° 0 mm 3 mps 741 mmHg 56%
    21:00 +4°C° 0 mm 3 mps 741 mmHg 57%
    22:00 +3°C° 0 mm 3 mps 741 mmHg 58%
    23:00 +2°C° 0 mm 3 mps 742 mmHg 59%

    30 April, Tuesday

    Time Temperature Precipitation Wind Pressure Humidity
    00:00 +2°C° 0 mm 3 mps 741 mmHg 61%
    01:00 +2°C° 0 mm 3 mps 741 mmHg 62%
    02:00 +1°C° 0 mm 3 mps 741 mmHg 64%
    03:00 +1°C° 0 mm 3 mps 741 mmHg 65%
    04:00 +1°C° 0 mm 3 mps 741 mmHg 67%
    05:00 +1°C° 0 mm 3 mps 741 mmHg 69%
    06:00 +3°C° 0 mm 3 mps 741 mmHg 63%
    07:00 +5°C° 0 mm 3 mps 741 mmHg 58%
    08:00 +6°C° 0 mm 4 mps 741 mmHg 52%
    09:00 +7°C° 0 mm 4 mps 740 mmHg 50%
    10:00 +9°C° 0 mm 3 mps 740 mmHg 47%
    11:00 +10°C° 0 mm 3 mps 740 mmHg 45%
    12:00 +10°C° 0 mm 3 mps 739 mmHg 45%
    13:00 +10°C° 0 mm 3 mps 739 mmHg 44%
    14:00 +11°C° 0 mm 3 mps 738 mmHg 44%
    15:00 +10°C° 0 mm 3 mps 738 mmHg 45%
    16:00 +10°C° 0 mm 3 mps 738 mmHg 47%
    17:00 +10°C° 0 mm 2 mps 738 mmHg 49%
    18:00 +9°C° 0 mm 2 mps 738 mmHg 51%
    19:00 +8°C° 0 mm 2 mps 738 mmHg 52%
    20:00 +8°C° 0 mm 3 mps 738 mmHg 53%
    21:00 +7°C° 0 mm 2 mps 738 mmHg 55%
    22:00 +7°C° 0 mm 2 mps 738 mmHg 57%
    23:00 +7°C° 0 mm 2 mps 738 mmHg 58%

    1 May, Wednesday

    Time Temperature Precipitation Wind Pressure Humidity
    00:00 +5°C° 0 mm 3 mps 737 mmHg 61%
    01:00 +4°C° 0 mm 3 mps 737 mmHg 63%
    02:00 +4°C° 0 mm 3 mps 737 mmHg 66%
    03:00 +4°C° 0 mm 3 mps 737 mmHg 67%
    04:00 +4°C° 0 mm 3 mps 737 mmHg 68%
    05:00 +3°C° 0 mm 3 mps 736 mmHg 68%
    06:00 +5°C° 0 mm 3 mps 736 mmHg 65%
    07:00 +6°C° 0 mm 4 mps 736 mmHg 61%
    08:00 +7°C° 0 mm 5 mps 736 mmHg 57%
    09:00 +8°C° 0 mm 5 mps 736 mmHg 54%
    10:00 +9°C° 0 mm 5 mps 736 mmHg 52%
    11:00 +9°C° 0 mm 5 mps 736 mmHg 49%
    12:00 +9°C° 0 mm 5 mps 735 mmHg 50%
    13:00 +9°C° 0 mm 5 mps 735 mmHg 51%
    14:00 +9°C° 0 mm 5 mps 734 mmHg 52%
    15:00 +8°C° 0.1 mm 5 mps 734 mmHg 56%
    16:00 +8°C° 0.1 mm 4 mps 734 mmHg 60%
    17:00 +7°C° 0.1 mm 4 mps 733 mmHg 64%
    18:00 +7°C° 0.1 mm 4 mps 733 mmHg 68%
    19:00 +8°C° 0.1 mm 3 mps 732 mmHg 72%
    20:00 +7°C° 0.1 mm 3 mps 732 mmHg 77%
    21:00 +6°C° 0.4 mm 4 mps 731 mmHg 81%
    22:00 +6°C° 0.4 mm 4 mps 731 mmHg 85%
    23:00 +6°C° 0.4 mm 4 mps 730 mmHg 90%
    Show more